Location: Newark
(31.5350°N, 35.0986°E)
Time: 02:52:52
(UTC+00:00)

Transit 4A - Pass Details

Date: 19 October 2019
Orbit: 869 x 976 km, 66.8° (Epoch: 20 November)

Event Time Altitude Azimuth Distance (km) Brightness Sun altitude
Rises 11:12:18 0° 343° (NNW) 3,532 10.7 41.2°
Reaches altitude 10° 11:15:03 10° 352° (N) 2,572 10.0 40.8°
Maximum altitude 11:20:30 37° 59° (ENE) 1,351 8.7 40.1°
Drops below altitude 10° 11:25:49 10° 125° (SE) 2,514 10.2 39.4°
Sets 11:28:27 0° 134° (SE) 3,443 10.9 39.0°
